[[{"header":{"parameterUnit":"m.s-1","parameterCategory":1,"la1":30.2992,"la2":30.254,"lo1":-89.0895,"lo2":-89.0443,"dy":0.0025,"dx":0.0025,"nx":19,"ny":19,"refTime":"2026-04-02T03:00:00:Z","depth":0,"parameterNumber":2,"parameterNumberName":"U-component_of_WINDS"},"data":[0,0,0,-3.6361,-3.6364,-3.649,-3.6491,-3.6657,-3.6658,0,0,0,0,0,0,0,0,0,0,0,-3.6326,-3.6328,-3.6361,-3.6364,-3.649,-3.6491,-3.6656,-3.6658,0,0,0,0,0,0,0,0,0,0,0,-3.6326,-3.6327,-3.6329,-3.6365,-3.649,-3.6491,-3.6656,-3.6559,0,0,0,0,0,0,0,0,0,0,-3.6436,-3.6406,-3.6327,-3.6329,-3.6365,-3.649,-3.6491,-3.6554,-3.6565,-3.6602,0,-3.6634,0,-3.6649,-3.667,-3.667,0,0,0,-3.6362,-3.6397,-3.6429,-3.6329,-3.6367,-3.649,-3.6433,-3.656,-3.6573,-3.6616,-3.6637,-3.6643,-3.6652,-3.6671,-3.6672,-3.6887,-3.6888,0,0,-3.6355,-3.6351,-3.6421,-3.6437,-3.6418,-3.6429,-3.6437,-3.6568,-3.659,-3.6637,-3.6646,-3.6654,-3.6672,-3.6673,-3.6886,-3.6887,0,0,0,-3.6337,-3.6346,-3.6374,-3.643,-3.6453,-3.6432,-3.6442,-3.6584,-3.6594,-3.6648,-3.6656,-3.6673,-3.6675,-3.6885,-3.6886,-3.6935,0,0,0,-3.6332,-3.6335,-3.6371,-3.637,-3.645,-3.652,-3.6455,-3.6585,-3.66,-3.6656,-3.6673,-3.6677,-3.6883,-3.6885,-3.6931,-3.6959,0,0,0,-3.6317,-3.6333,-3.6352,-3.6369,-3.6423,-3.6518,-3.6535,-3.6588,-3.6605,-3.667,-3.6677,-3.6883,-3.6885,-3.6928,-3.6953,-3.7013,0,0,0,-3.63,-3.6394,-3.6353,-3.6462,-3.6422,-3.6548,-3.6534,-3.6628,-3.669,-3.6674,-3.6884,-3.6886,-3.6927,-3.6949,-3.7009,-3.7062,-3.7084,0,0,-3.6416,-3.6408,-3.6472,-3.6439,-3.6571,-3.6529,-3.6668,-3.6729,-3.674,-3.6837,-3.6843,-3.6932,-3.6952,-3.7012,-3.7211,-3.7228,0,0,0,-3.6507,-3.6553,-3.6589,-3.6648,-3.6698,-3.6742,-3.6783,-3.6806,-3.6888,-3.6789,-3.6971,-3.6984,-3.7019,-3.7044,-3.7059,-3.7089,-3.6898,-3.6898,-3.6897,-3.6664,-3.6673,-3.678,-3.6804,-3.6861,-3.6903,-3.695,-3.6988,-3.698,-3.7023,-3.7052,-3.7171,-3.72,-3.7212,-3.7243,-3.7082,-3.7082,-3.7082,-3.7082,-3.6834,-3.69,-3.6888,-3.6987,-3.6996,-3.708,-3.7124,-3.7116,-3.7195,-3.715,-3.7182,-3.713,-3.723,-3.7258,-3.7086,-3.7085,-3.7085,-3.7084,-3.7084,-3.6936,-3.6969,-3.6996,-3.7082,-3.7148,-3.717,-3.7246,-3.7252,-3.7259,-3.729,-3.732,-3.7319,-3.7318,-3.7304,-3.7305,-3.7305,-3.7306,-3.7306,-3.7306,-3.7031,-3.7059,-3.7123,-3.7184,-3.7223,-3.7275,-3.7318,-3.7357,-3.7401,-3.7399,-3.7399,-3.7387,-3.7239,-3.7201,-3.7313,-3.7311,-3.7311,-3.731,-3.731,-3.7198,-3.7161,-3.7259,-3.7298,-3.737,-3.7435,-3.7442,-3.752,-3.7553,-3.7591,-3.7573,-3.7463,-3.7454,-3.7443,-3.7411,-3.7571,-3.7571,-3.7571,-3.7571,-3.7283,-3.728,-3.7381,-3.7443,-3.7505,-3.7521,-3.7632,-3.7668,-3.7698,-3.7719,-3.7698,-3.7657,-3.7645,-3.7644,-3.7628,-3.7598,-3.7802,-3.7802,-3.7802,-3.7385,-3.7389,-3.7481,-3.7511,-3.7568,-3.7617,-3.7722,-3.7793,-3.7821,-3.7812,-3.7736,-3.7726,-3.766,-3.7639,-3.7626,-3.7601,-3.7547,0,0]},{"header":{"parameterUnit":"m.s-1","parameterCategory":1,"la1":30.2992,"la2":30.254,"lo1":-89.0895,"lo2":-89.0443,"dy":0.0025,"dx":0.0025,"nx":19,"ny":19,"refTime":"2026-04-02T03:00:00:Z","depth":0,"parameterNumber":3,"parameterNumberName":"V-component_of_WINDS"},"data":[0,0,0,3.8386,3.8389,3.8494,3.8494,3.8634,3.8635,0,0,0,0,0,0,0,0,0,0,0,3.836,3.8361,3.8386,3.8389,3.8494,3.8494,3.8634,3.8635,0,0,0,0,0,0,0,0,0,0,0,3.8359,3.836,3.8362,3.8389,3.8494,3.8494,3.8634,3.8552,0,0,0,0,0,0,0,0,0,0,3.8449,3.8429,3.836,3.8362,3.839,3.8494,3.8494,3.8548,3.8557,3.8589,0,3.862,0,3.863,3.8645,3.8646,0,0,0,3.8385,3.8421,3.8446,3.8362,3.8391,3.8494,3.8445,3.8553,3.8563,3.8601,3.8622,3.8627,3.8633,3.8646,3.8647,3.885,3.8851,0,0,3.8379,3.838,3.8439,3.8453,3.8439,3.8442,3.8449,3.8559,3.8581,3.8623,3.863,3.8635,3.8647,3.8648,3.8849,3.8851,0,0,0,3.8365,3.8377,3.8398,3.8447,3.8466,3.8445,3.8453,3.8576,3.8583,3.8632,3.8637,3.8648,3.865,3.8848,3.885,3.8909,0,0,0,3.8361,3.8368,3.8396,3.8398,3.8464,3.8523,3.8468,3.8576,3.8588,3.8636,3.8648,3.8651,3.8847,3.8849,3.8904,3.8936,0,0,0,3.8351,3.8367,3.8384,3.8398,3.8443,3.8521,3.8534,3.8578,3.8591,3.8646,3.8652,3.8846,3.8848,3.89,3.8929,3.8991,0,0,0,3.834,3.8433,3.8385,3.8491,3.8442,3.8557,3.8533,3.8618,3.8672,3.8649,3.8847,3.8849,3.8899,3.8926,3.8987,3.9043,3.9067,0,0,3.8458,3.8447,3.8509,3.847,3.8594,3.8541,3.8673,3.8719,3.8722,3.8807,3.8812,3.8906,3.8929,3.899,3.9198,3.9217,0,0,0,3.8547,3.8592,3.8625,3.8677,3.8717,3.8753,3.878,3.8798,3.887,3.8767,3.8944,3.8958,3.8993,3.902,3.9036,3.9067,3.8862,3.8862,3.8861,3.8715,3.8716,3.882,3.8834,3.8885,3.8913,3.8954,3.8983,3.8966,3.9008,3.9034,3.916,3.9191,3.9203,3.9236,3.9063,3.9063,3.9063,3.9063,3.8889,3.8953,3.8932,3.9025,3.9025,3.9102,3.9133,3.9119,3.9191,3.914,3.9172,3.9117,3.9224,3.9252,3.9068,3.9067,3.9067,3.9066,3.9066,3.9,3.9031,3.9052,3.913,3.9189,3.9199,3.927,3.9267,3.9264,3.9295,3.9322,3.9321,3.932,3.9308,3.9309,3.9309,3.931,3.931,3.931,3.9107,3.9129,3.919,3.9242,3.9276,3.9321,3.9351,3.9384,3.942,3.9412,3.9412,3.9392,3.9235,3.9195,3.9317,3.9316,3.9315,3.9314,3.9314,3.9283,3.9243,3.9338,3.9373,3.9434,3.9494,3.9489,3.9557,3.9584,3.9619,3.9594,3.9477,3.9465,3.9453,3.942,3.9593,3.9593,3.9593,3.9593,3.9377,3.9372,3.9469,3.9525,3.9579,3.9585,3.9692,3.9716,3.9735,3.9752,3.9726,3.9683,3.967,3.9666,3.9648,3.9618,3.9837,3.9837,3.9838,3.9487,3.9487,3.9578,3.9598,3.9646,3.9687,3.9788,3.9852,3.9865,3.9848,3.9765,3.9755,3.9685,3.9662,3.9642,3.9616,3.956,0,0]}]]